www.pogodaiklimat.ru

Погода и климат >> Архив погоды >> Россия >> Приморский край >> Гамов


ПОГОДА в Гамове

  • Прогноз погоды в Гамове
  • Монитор погоды в Гамове

АРХИВ ПОГОДЫ в Гамове

Время (UTC), дата Ветер
(напр.,м/с)
 
Видим.   Явления Облачность Т
(С)
Тd
(С)
f
(%)
Тe
(С)
Тes
(С)
Комфортность P
(гПа)
Po
(гПа)
Тmin
(С)
Tmax
(С)
R
(мм)
R24
(мм)
S
(см)
06 12.02 н/о н/о -5.3 -20.5 29< 1032.2 1025.3
09 12.02 СВ 8-13
{14}
н/о н/о -4.9 -20.2 29< -13 -13 1033.6 1026.7 -4.3
12 12.02 СВ 4 н/о н/о -6.1 -25.4 20 -12 1035.0 1028.0
15 12.02 СВ 3 н/о н/о -7.8 -24.4 25 -13 1035.0 1028.0
18 12.02 СВ 4 н/о н/о -9.4 -24.1 29 -16 1036.4 1029.3
21 12.02 СВ 4 н/о н/о -10.9 -24.3 32 -18 1035.1 1028.0 -10.9
00 13.02 СВ 5 н/о н/о -10.3 -22.8 35 -18 1036.4 1029.3 -11.2
03 13.02 н/о н/о -7.3 -20.5 34< 1033.7 1026.7
06 13.02 СВ 7 н/о н/о -3.7 -20.8 25 -11 1032.2 1025.3
09 13.02 СВ 4
{14}
н/о н/о -4.5 -22.0 24 -10 -10 1033.6 1026.7 -3.3
12 13.02 СВ 4 н/о н/о -5.5 -23.8 22 -11 1035.0 1028.0
15 13.02 н/о н/о -6.5 -21.6 29< 1036.3 1029.3
18 13.02 СВ 6 н/о н/о -7.5 -21.3 32 -15 1036.3 1029.3
21 13.02 СВ 9-15
{15}
н/о н/о -8.2 -21.6 33 -18 -18 1033.8 1028.3 -8.2
00 14.02 СВ 2
{16}
н/о н/о -6.9 -21.6 30 -11 -11 1034.8 1029.3 -8.4
03 14.02 н/о н/о -5.3 -19.4 32< 1036.3 1029.3
06 14.02 н/о н/о -2.4 -19.3 26< 1032.2 1025.3
09 14.02 СВ 10-14
{15}
н/о н/о -2.3 -11.8 48< -10 -10 1032.2 1025.3 -1.5
12 14.02 СВ 6 н/о н/о -2.4 -8.3 64 -9 1030.9 1024.0
15 14.02 СВ 3 н/о н/о -3.1 -9.5 61 -8 1030.9 1024.0
18 14.02 СВ 1 н/о н/о -2.2 -11.2 50 -4 1029.5 1022.7
21 14.02 СВ 2 н/о н/о -5.5 -10.1 70 -10 1026.9 1020.0 -5.6
00 15.02 СВ 2
{10}
н/о н/о -6.2 -7.2 93 -11 -11 1022.2 1016.8 -6.6
03 15.02 СВ 2 н/о н/о -5.8 -6.6 94 -10 1022.9 1016.0
06 15.02 СВ 2 н/о н/о -5.4 -6.2 94 -10 1020.2 1013.3
09 15.02 СВ 3 н/о н/о -4.9 -5.6 95 -11 1018.8 1012.0 -4.7
12 15.02 СВ 4 н/о н/о -3.5 -7.8 72 -9 1020.1 1013.3
15 15.02 СВ 4 н/о н/о -4.0 -14.7 43 -9 1021.5 1014.7
18 15.02 СВ 5 н/о н/о -5.6 -14.6 49 -12 1021.6 1014.7
21 15.02 СВ 7-11
{12}
н/о н/о -6.7 -14.5 54 -15 -15 1020.2 1014.8 -6.9
00 16.02 СВ 7-12
{13}
н/о н/о -7.1 -14.1 57 -15 -15 1021.5 1016.0 -7.4
03 16.02 СВ 7 н/о н/о -3.9 -13.3 48 -11 1022.8 1016.0
06 16.02 н/о н/о -1.3 -12.0 44< 1018.8 1012.0
09 16.02 СВ 7-14
{16}
н/о н/о -1.4 -12.3 43 -8 -8 1018.8 1012.0 -0.7
12 16.02 СВ 10-15
{15}
н/о н/о -2.5 -13.0 44 -11 -11 1017.7 1012.4
15 16.02 н/о н/о -3.6 -13.3 47< 1018.8 1012.0
18 16.02 СВ 5 н/о н/о -4.7 -15.1 44 -11 1021.6 1014.7
21 16.02 СВ 11-18
{18}
н/о н/о -4.8 -14.6 46 -14 -14 1017.9 1012.6 -5.0
00 17.02 СВ 17-21
{22}
н/о н/о -4.3 -14.1 46 -15 -15 1018.3 1013.0
03 17.02 н/о н/о -0.9 -13.1 39< 1018.7 1012.0
06 17.02 н/о н/о +2.6 -13.2 30< 1018.7 1012.0
09 17.02 СВ 7-11
{17}
н/о н/о +1.4 -9.2 45 -4 -4 1018.7 1012.0 +3.0
12 17.02 СВ 9-14
{14}
н/о н/о +1.4 -12.3 35 -5 -5 1018.3 1013.1
15 17.02 СВ 2 н/о н/о +0.2 -13.4 35 -2 1024.0 1017.3
18 17.02 СВ 4 н/о н/о -0.4 -13.6 36 -5 1024.1 1017.3
21 17.02 СВ 2 н/о н/о -0.9 -13.1 39 -4 1025.5 1018.7 -1.7
00 18.02 СВ 10-12
{13}
н/о н/о -0.8 -10.4 48 -9 -9 1024.1 1018.8
03 18.02 СВ 7 н/о н/о +2.9 -13.8 28 -2 1026.7 1020.0
06 18.02 н/о н/о +2.7 -2.0 71< 1024.0 1017.3
09 18.02 СВ 11-13
{14}
н/о н/о +1.5 -2.4 75 -6 -6 1024.0 1017.3 +3.7
12 18.02 н/о н/о +1.6 -2.0 77< 1025.4 1018.7
15 18.02 СВ 5 н/о н/о +1.8 -1.6 78 -4 1024.0 1017.3
18 18.02 СВ 2 н/о н/о +1.8 -1.3 80 -1 1024.0 1017.3
21 18.02 СВ 2 н/о н/о +0.1 -2.4 83 -3 -3 1020.2 1014.9 -0.3
00 19.02 СВ 2 н/о н/о -0.7 -1.8 92 -5 1022.8 1016.0 -0.8

 

Местоположение метеостанции Гамов (Приморский край, Россия): широта 42.55 долгота 131.22 высота над уровнем моря 53 м.

В архиве по умолчанию представлена погода в Гамове за последнюю неделю. Архивные данные за месяц целиком и за предыдущие месяцы, начиная с января 2011 года, Вы можете получить, выбрав интересующий диапазон дат из раскрывающегося списка и нажав кнопку "Ввод!".


*Определитесь, кто Вы:
робот инопланетянин человек

Внимание! Время в таблицах - всемирное. Для получения местного времени необходимо прибавить поправку, которая равна 10 ч.

Смотрите также архив погоды в соседних городах и на ближайших метеорологических станциях:

Погода в Посьете (Приморский край, Россия) (36 км)
Погода в Сонбонге (КНДР) (72 км)
Погода в Барабаше (Приморский край, Россия) (74 км)
Погода на Мысе Назимова (Приморский край, Россия) (79 км)
Погода в Владивостоке (Приморский край, Россия) (84 км)
Погода в Находке (Приморский край, Россия) (132 км)
Погода в Многоудобном (Приморский край, Россия) (144 км)
Погода в Чхонджине (КНДР) (144 км)
Погода в Яньцзи (Гирин, Китай) (145 км)
Погода в Тимирязевском (Приморский край, Россия) (158 км)

Пояснения к столбцам:

Ветер - указаны скорость ветра в м/с - средняя за 10 мин, порывы в срок и между сроками (в фигурных скобках) и направление, откуда дует ветер: С - северный, СВ - северо-восточный, В - восточный, ЮВ - юго-восточный, Ю - южный, ЮЗ - юго-западный, З - западный, СЗ - северо-западный.
Видимость - горизонтальная дальность видимости в метрах или километрах. При видимости от 1 до 10 км при отсутствии осадков обычно наблюдается дымка, при ухудшении видимости до 1 км и менее - туман. В сухую погоду видимость может ухудшаться дымом, пылью или мглою.
Явления - указаны атмосферные явления, наблюдавшиеся в срок или в последний час перед сроком; фигурными скобками обозначены явления, наблюдавшиеся между сроками (за 1-3 часа до срока); квадратными скобками обозначены град или гололедные отложения с указанием их диаметра в мм.
Облачность - указаны через наклонную черту общая и нижняя облачность в баллах и высота нижней границы облаков в метрах; квадратными скобками обозначены формы облаков: Ci - перистые, Cs - перисто-слоистые, Cc - перисто-кучевые, Ac - высококучевые, As - высокослоистые, Sc - слоисто-кучевые, Ns - слоисто-дождевые, Cu - кучевые, Cb - кучево-дождевые. Подробнее классификацию облаков см. в Атласе облаков (PDF).
T - Температура воздуха - температура, измеренная на высоте 2 м над землей.
Td - Температура точки росы - температура, при понижении до которой содержащийся в воздухе водяной пар достигнет насыщения.
f - Относительная влажность воздуха - влажноcть воздуха, измеренная на высоте 2 м над землей.
Te - Эффективная температура - температура, которую ощущает одетый по сезону человек в тени. Характеристика душности погоды. При расчете учитывается влияние влажности воздуха и скорости ветра на теплоощущения человека.
Tes - Эффективная температура на солнце - температура, которую ощущает человек, с поправкой на солнечный нагрев. Характеристика знойности погоды. Зависит от высоты солнца над горизонтом, облачности и скорости ветра. Ночью, в пасмурную погоду, а также при ветре 12 м/с и более поправка равна нулю.
P - Атмосферное давление - приведенное к уровню моря атмосферное давление.
Po - Атмосферное давление - измеренное на уровне метеостанции атмосферное давление.
Tmin - Минимальная температура - минимум температуры воздуха на высоте 2 м над землей.
Tmax - Максимальная температура - максимум температуры воздуха на высоте 2 м над землей.
R - Количество осадков - Количество выпавших осадков за период времени, мм. При наведении курсора мыши на число - период времени, за который выпало указанное количество осадков.
R24 - Количество осадков - Количество выпавших осадков за 24 часа, мм.
S - Снежный покров - Высота снежного покрова, см. При наведении курсора мыши на число - состояние снежного покрова и степень покрытия местности в баллах.